Wind_Speed
15 15 15 16 16 16 16 16 15 15 15 14 13 13 12 12 12 12 11 11 10 9 8 8 8 7 6 6 7 7 9 11 13 14 14 12 9 8 7 9 12 15 18 19 18 18 17 18 17 17 16 16 16 14 13 11 11 12 12 12 12 11 11 12 10 9 8 8 8 9 9 9 8 5 5 7 9 8 8 8 7 8 7 6 6 6 6 7
16 16 16 16 16 16 16 16 16 16 15 15 14 14 13 13 13 13 13 12 11 10 9 9 9 8 6 6 7 8 8 9 12 14 14 12 12 12 11 11 13 15 17 18 19 19 19 20 20 19 19 19 18 15 13 12 12 12 12 12 12 12 12 11 10 10 9 9 9 9 9 9 9 7 5 6 8 8 8 8 7 6 6 5 5 4 5 6
18 18 18 18 18 17 17 17 16 16 16 16 15 15 14 14 14 14 14 13 13 12 10 10 10 10 8 5 6 8 8 8 10 13 14 13 14 14 13 12 14 17 18 20 22 23 23 23 24 23 22 22 19 16 15 14 13 13 12 12 13 12 12 12 11 11 10 9 9 8 8 8 8 9 6 5 7 9 9 9 7 5 4 4 4 4 5 6
20 20 20 20 19 19 18 18 17 17 17 16 15 15 14 13 13 14 14 14 14 13 11 11 11 12 10 7 5 6 8 8 9 11 13 14 14 15 15 12 14 17 18 20 21 23 24 24 25 24 22 21 19 17 15 15 15 14 13 14 14 13 11 12 12 11 11 10 8 7 7 7 8 9 9 6 6 9 9 8 7 5 4 3 3 4 5 6
22 22 21 21 21 21 20 19 19 18 18 17 16 14 14 13 13 13 14 14 14 13 13 12 12 13 12 9 6 5 7 8 9 10 12 14 14 16 17 15 15 15 15 17 18 19 21 20 20 20 19 18 17 15 15 17 16 15 16 16 15 14 11 12 13 12 12 9 8 6 6 7 8 9 11 9 8 8 9 8 6 5 4 2 2 3 4 6
23 23 23 22 22 22 22 21 21 20 20 19 17 15 13 13 12 13 13 13 13 13 13 13 13 13 13 12 9 6 7 6 8 10 12 12 13 15 17 17 16 14 13 14 16 17 17 16 16 17 17 16 16 16 17 19 18 18 18 17 16 16 13 12 14 13 11 9 8 7 7 8 8 9 10 12 11 9 8 8 6 5 4 1 1 3 3 4
24 24 24 24 23 23 23 23 23 22 22 21 19 16 15 14 14 14 13 13 13 13 13 13 14 14 14 15 12 10 7 5 7 10 11 11 11 14 16 18 18 16 14 13 14 15 15 13 13 16 19 19 18 18 19 19 19 19 19 18 17 17 15 14 13 12 11 10 9 8 8 8 8 9 9 10 12 11 10 9 7 4 3 2 2 3 3 2
24 24 24 24 24 24 24 24 24 24 24 23 20 18 17 17 17 17 15 14 13 13 14 14 14 14 14 15 14 13 7 4 7 8 9 10 12 13 15 17 18 18 17 15 14 14 15 14 13 18 20 20 20 21 22 20 20 20 19 20 18 18 17 14 11 11 11 11 9 9 8 7 7 9 10 9 10 11 11 10 9 6 3 1 3 3 3 3
23 23 23 23 23 24 24 24 24 25 25 24 22 20 19 20 20 19 17 16 15 14 14 15 15 14 15 15 16 15 7 5 10 8 8 10 12 13 13 15 18 19 19 17 16 15 15 15 16 19 21 23 23 25 24 21 20 21 21 20 18 18 17 14 11 10 10 11 10 9 9 8 8 8 9 9 9 8 9 10 10 7 5 2 1 3 3 4
23 22 22 22 23 23 23 23 24 25 25 24 23 22 22 22 22 21 20 18 16 15 15 15 16 15 15 16 16 15 8 8 12 10 8 10 11 13 12 13 16 19 20 19 17 15 15 18 20 22 25 27 27 27 26 22 21 23 22 20 19 18 16 14 12 10 9 10 10 9 9 8 7 7 7 8 8 7 6 8 9 8 5 3 1 3 4 5
23 23 22 22 22 22 22 22 23 24 25 24 23 22 23 24 24 23 22 21 19 17 17 17 16 16 16 17 17 15 9 10 15 12 10 10 11 12 12 12 13 17 20 20 18 18 19 21 24 25 26 27 28 29 26 24 24 25 23 20 20 20 16 14 12 10 8 7 8 8 9 8 7 7 6 6 7 6 4 5 8 8 5 4 2 2 4 5
24 24 24 24 23 23 23 22 23 24 24 23 22 22 24 25 24 24 24 23 21 19 19 18 18 17 17 18 17 15 12 12 16 15 13 11 11 12 12 12 12 15 18 20 21 21 22 23 25 25 25 26 28 29 27 26 27 27 26 23 22 20 16 15 14 13 9 6 5 6 9 10 9 8 7 6 6 5 3 4 6 8 6 4 2 1 2 4
27 26 26 25 25 24 24 23 24 24 24 23 22 22 24 25 24 25 25 25 24 22 21 20 20 18 19 20 17 15 14 14 17 18 16 12 10 12 14 13 12 13 16 20 22 23 23 24 25 25 26 27 29 28 27 27 28 28 27 24 23 20 17 18 17 15 13 10 6 5 11 12 11 10 8 7 6 5 4 4 6 7 7 5 3 1 0 3
30 29 29 28 27 27 25 25 25 25 25 24 23 23 23 24 24 25 25 25 25 24 23 22 22 20 21 22 19 15 14 16 18 18 17 13 10 12 15 15 14 13 15 18 21 22 23 24 26 27 28 28 28 28 27 26 27 28 26 24 25 21 20 21 20 17 15 13 7 7 13 13 12 12 10 9 7 6 4 4 6 8 8 7 4 2 1 2
34 33 33 32 31 30 28 27 27 27 27 26 25 25 25 25 24 24 25 26 26 26 25 24 23 22 22 24 22 17 16 17 19 18 16 15 13 14 16 17 15 13 13 15 18 21 23 24 26 26 27 27 28 28 28 26 25 26 25 24 24 22 22 23 22 19 17 15 10 9 15 15 14 15 13 11 9 7 5 4 6 8 9 8 5 2 1 1
37 37 36 36 35 33 32 30 30 30 30 29 28 27 27 26 25 25 25 25 26 26 26 26 26 24 24 26 25 20 18 19 20 17 16 16 16 16 16 16 16 14 14 14 16 19 21 23 24 25 26 27 27 27 28 26 25 24 23 22 22 22 24 24 22 20 19 17 12 12 17 18 17 17 16 14 12 9 7 5 5 8 9 8 7 4 3 1
40 39 39 39 38 37 35 34 33 33 33 32 31 29 29 29 28 27 26 25 25 26 27 27 27 26 25 27 28 25 22 21 21 20 18 18 18 17 17 17 17 17 16 15 15 16 18 21 22 24 26 26 26 26 26 23 22 21 19 19 20 22 26 25 22 20 20 19 15 14 18 19 19 18 17 16 14 12 9 7 6 7 8 8 8 6 4 2
41 41 42 41 41 41 39 38 36 36 36 35 34 33 32 32 31 29 28 27 26 26 27 27 27 27 26 28 30 29 26 23 23 23 22 21 20 18 18 18 18 17 17 16 15 15 15 17 19 23 25 27 26 25 22 17 17 19 18 19 20 21 24 24 23 22 22 22 18 16 18 20 21 20 19 17 15 14 12 10 7 7 7 7 7 6 4 4
43 43 43 43 43 43 42 41 40 39 39 39 37 36 35 34 34 33 31 29 28 28 28 27 26 26 27 29 30 30 29 26 25 25 24 23 22 20 18 18 17 18 17 16 16 15 15 16 17 18 19 22 23 22 20 18 18 19 18 21 23 22 23 24 24 25 24 23 19 17 21 23 23 22 21 20 19 17 15 13 10 7 6 5 6 6 4 4
44 44 44 44 45 45 45 44 43 42 42 42 41 39 38 37 37 36 34 33 31 30 29 27 26 27 28 29 31 31 30 29 26 26 26 25 24 22 19 18 17 17 17 17 17 17 17 15 13 11 12 16 20 22 22 22 22 22 19 21 25 24 22 24 26 26 25 24 20 19 24 26 25 24 24 23 22 19 17 16 13 10 7 5 5 6 4 4
46 46 45 45 46 47 47 46 46 45 44 44 44 43 42 40 39 38 37 36 35 33 31 30 28 26 27 31 32 32 32 30 28 27 27 27 26 24 21 19 18 17 17 19 20 20 17 9 6 9 12 16 20 23 25 24 24 25 23 20 22 24 22 23 26 27 28 26 20 20 26 29 27 28 27 25 22 19 18 16 15 13 11 8 6 6 6 4
47 48 47 47 47 48 48 48 48 47 46 46 46 46 45 43 42 41 39 38 37 37 34 32 31 27 28 33 34 34 33 29 28 28 28 28 27 26 23 21 19 18 20 22 21 20 15 8 7 11 13 17 21 24 26 26 25 26 27 23 21 23 24 25 26 27 31 28 21 23 28 31 30 30 28 25 23 21 19 17 16 16 15 13 10 8 8 6
47 48 48 48 48 49 50 50 50 49 49 49 48 48 48 46 45 44 43 40 38 39 37 34 34 30 29 34 37 37 33 29 30 30 29 29 28 28 26 23 22 22 24 23 20 19 15 13 15 15 15 18 21 24 26 27 28 27 27 25 19 20 26 28 28 30 33 29 23 26 31 33 32 31 29 26 25 23 21 20 18 17 17 17 15 11 10 8
47 48 48 48 48 49 50 51 52 52 51 50 50 50 50 49 48 47 46 44 39 39 40 38 36 34 33 36 40 39 34 32 33 31 30 30 29 29 28 26 25 25 24 22 22 21 18 18 19 19 18 19 20 23 26 27 27 26 27 25 21 21 26 31 32 33 34 31 25 27 32 34 33 31 29 28 27 25 22 21 19 16 16 17 16 14 13 10
48 48 48 48 48 48 49 51 53 54 53 52 52 52 52 51 51 50 49 48 43 39 41 41 39 37 37 38 41 40 37 34 32 32 33 32 30 31 30 30 29 25 22 23 25 23 21 21 21 20 20 20 21 22 23 25 26 27 27 26 25 24 26 31 34 34 35 34 27 27 33 35 34 33 32 31 29 27 24 21 19 17 16 14 15 16 14 12
49 49 48 48 48 47 48 50 52 54 55 55 54 53 53 53 53 52 51 51 48 42 41 42 42 40 40 40 41 42 42 37 32 36 37 33 32 33 33 33 31 26 24 26 28 25 22 22 22 22 21 21 21 19 19 22 24 26 26 27 30 30 27 31 34 35 37 35 30 31 34 34 36 36 34 33 31 29 27 23 21 20 18 15 15 16 15 14
51 51 50 49 49 48 47 48 50 52 54 56 56 55 54 54 54 54 53 53 52 48 43 43 44 44 42 42 42 43 44 40 35 39 39 34 33 34 35 35 32 28 27 29 29 21 18 22 22 22 22 23 21 17 16 19 20 21 23 28 32 32 30 31 35 39 38 37 35 35 35 33 36 37 35 33 32 30 28 25 24 22 19 17 16 15 15 15
52 53 52 51 51 50 49 48 48 50 52 54 56 56 55 55 54 54 54 54 54 52 48 45 45 46 45 44 44 45 46 43 40 40 40 37 35 35 36 34 31 29 30 33 28 18 17 22 22 23 25 25 21 18 18 19 17 17 22 29 31 33 34 35 38 40 40 41 39 35 35 33 30 35 36 35 34 31 28 27 25 23 21 19 17 16 15 15
53 53 53 53 53 53 53 52 50 50 51 53 54 55 56 56 55 55 55 55 55 54 52 48 47 48 48 46 45 46 47 46 44 42 42 41 38 36 35 32 31 32 34 35 30 24 25 25 25 28 28 26 25 24 23 21 20 19 23 28 32 34 37 39 41 40 42 44 39 33 36 35 25 31 39 38 34 29 26 27 26 25 23 21 20 18 17 17
56 54 53 53 53 54 55 55 54 53 52 53 54 54 55 56 56 56 56 56 54 54 55 53 50 49 50 48 46 47 48 48 47 45 44 44 41 39 37 34 35 35 36 37 33 30 30 29 30 29 25 25 28 28 26 25 24 23 25 29 34 36 38 41 41 42 43 42 37 33 36 37 26 27 39 40 32 27 25 28 28 27 26 23 22 20 18 18
61 59 56 54 54 54 54 56 57 56 55 55 55 55 55 56 57 58 58 56 53 54 56 56 54 51 50 50 48 47 47 48 48 47 47 46 45 44 41 40 39 38 38 39 37 33 32 33 33 27 23 25 26 26 27 27 27 25 27 31 35 36 38 40 42 42 41 38 36 34 36 38 27 22 34 37 30 28 28 29 30 29 27 25 23 21 19 17
66 64 62 60 58 56 55 56 56 57 58 57 57 57 56 57 58 58 58 55 54 57 58 57 56 53 51 51 50 49 47 47 47 48 48 47 48 47 43 42 41 40 39 37 35 33 33 34 33 28 27 27 26 24 26 28 28 26 27 31 34 35 37 38 39 37 33 31 30 29 35 35 21 14 25 31 29 29 29 30 32 30 28 27 25 23 21 20
71 69 67 66 64 62 60 58 57 57 58 59 59 59 59 60 59 57 56 55 56 59 58 57 56 55 52 51 51 50 49 47 47 48 48 48 49 48 45 43 41 42 41 37 35 34 33 34 34 33 31 30 28 25 23 25 26 26 27 30 32 33 33 31 31 30 29 28 25 24 31 28 14 10 19 26 28 28 28 32 33 32 29 28 26 25 24 22
78 76 74 72 70 68 66 63 61 59 59 59 60 61 62 62 60 58 58 58 59 58 58 57 56 55 54 52 51 50 49 48 47 47 49 49 49 49 48 46 45 45 43 40 39 38 37 36 35 32 29 28 28 25 23 24 26 26 27 29 32 33 31 28 27 27 28 29 26 23 24 17 8 10 17 22 26 26 28 31 34 33 31 30 29 27 26 24
83 82 80 79 77 75 72 69 66 64 62 61 61 62 63 63 62 62 62 61 60 59 58 58 57 55 55 53 52 51 50 49 47 47 48 49 49 48 47 47 46 46 45 44 43 41 41 39 34 30 29 30 31 27 27 30 30 29 30 33 33 30 29 29 29 28 29 31 29 22 17 13 9 9 13 18 21 23 26 30 35 34 32 32 31 28 26 24
82 83 83 82 81 80 78 76 73 69 65 64 63 64 64 63 64 65 65 64 63 62 60 59 58 57 56 55 54 52 51 51 49 48 48 49 50 49 47 47 47 48 47 46 45 43 43 40 35 35 35 36 35 32 32 34 33 32 32 32 28 26 30 32 31 30 31 33 30 21 14 14 14 12 12 14 18 21 24 31 35 33 31 31 30 29 28 25
76 77 77 77 78 79 79 78 77 74 70 67 65 65 64 65 66 66 67 67 66 65 63 61 61 60 59 58 56 53 52 52 51 50 49 50 51 51 50 48 49 50 50 48 46 45 45 41 38 39 37 35 36 37 38 39 38 37 34 28 28 30 33 35 34 32 32 31 26 16 12 13 13 13 13 13 17 20 23 29 32 31 29 29 28 28 27 26
66 66 66 66 67 69 72 73 75 74 72 69 67 66 67 67 67 67 69 69 69 68 67 65 64 63 62 61 59 56 54 53 54 53 51 51 52 53 52 50 50 51 51 50 48 46 46 43 42 41 39 36 38 41 42 44 44 41 36 33 36 37 35 35 35 32 29 27 20 12 9 8 9 12 13 14 17 19 22 26 29 29 28 28 27 27 26 25
58 57 57 56 56 57 60 63 66 68 69 68 66 66 68 68 67 68 69 70 71 72 71 69 68 66 64 63 62 59 56 55 56 56 55 54 54 54 54 53 52 52 52 51 50 49 47 45 44 42 40 39 42 44 46 46 45 41 39 39 41 40 36 36 36 31 28 26 19 12 8 6 9 12 14 15 16 18 21 24 26 27 28 28 27 26 26 25
53 52 51 50 48 47 49 51 53 56 60 62 62 63 65 66 66 67 69 70 72 73 73 73 71 69 67 66 64 62 60 58 58 58 58 58 57 56 55 55 54 53 52 51 51 50 48 47 46 44 42 43 46 46 46 45 43 41 40 40 40 38 37 38 38 35 32 28 22 14 5 6 12 15 15 16 17 19 21 22 24 26 28 28 27 26 26 26
50 47 46 45 43 42 42 42 43 45 47 52 55 57 60 63 65 65 68 70 71 73 75 75 74 73 71 69 67 65 63 61 60 60 61 61 60 59 57 57 57 55 54 52 52 52 51 49 48 46 45 47 48 46 44 43 42 40 39 38 37 36 37 39 39 36 32 29 25 17 7 9 13 13 13 15 18 20 22 23 25 26 29 30 29 28 26 26
46 44 41 40 39 38 37 37 37 36 37 41 45 48 52 58 61 62 64 69 71 72 74 75 76 75 74 72 71 69 66 64 63 62 63 63 63 62 61 59 59 58 57 55 54 53 53 52 50 49 49 49 49 47 46 45 44 43 43 42 40 40 42 42 38 32 30 30 27 23 15 14 12 8 9 13 16 19 21 23 24 26 27 29 31 31 29 28
44 42 40 38 36 35 33 32 31 30 31 32 34 39 44 49 55 57 59 64 69 72 74 75 76 76 76 75 73 71 69 67 65 65 65 65 65 65 63 62 61 61 60 59 57 55 55 54 53 51 50 51 51 50 49 48 47 47 47 46 46 48 46 43 37 33 34 34 31 28 22 19 14 10 11 12 14 17 19 21 24 25 27 28 30 32 33 32
43 41 39 37 33 31 29 27 26 26 26 27 29 31 34 39 46 50 53 58 64 69 72 73 75 76 76 76 76 74 72 70 68 68 67 67 67 67 66 65 64 63 63 62 61 58 57 57 55 53 53 54 54 54 53 52 51 52 51 49 51 51 47 44 41 41 42 40 35 32 26 22 17 14 13 13 15 17 18 20 22 23 25 27 29 32 34 34
43 38 35 34 30 27 25 24 23 23 23 23 25 27 28 31 37 42 47 54 60 65 69 71 74 75 76 77 76 75 74 72 70 70 70 69 69 69 69 68 67 66 66 65 64 62 60 59 58 57 56 57 58 58 57 55 54 55 53 52 53 51 49 47 46 47 46 41 37 36 30 23 20 17 17 16 16 17 18 20 20 21 21 22 24 27 30 33
44 35 30 29 27 24 23 21 22 22 21 20 20 21 22 25 30 35 42 50 54 59 65 69 72 73 75 76 76 76 75 74 74 73 71 71 71 70 71 70 69 69 68 67 66 64 63 62 61 60 58 58 58 58 56 55 55 56 55 53 52 51 49 48 48 50 47 43 42 40 32 26 22 21 21 20 19 19 19 20 20 19 19 18 19 20 24 28
42 32 26 25 23 22 21 21 22 22 20 19 17 16 16 19 24 29 35 42 47 51 56 63 68 70 72 74 75 76 76 75 75 76 75 73 73 73 73 73 72 71 70 69 68 67 66 65 64 62 60 59 59 58 57 56 57 57 56 55 54 52 50 49 51 51 46 45 45 40 33 30 24 22 22 22 21 21 21 21 20 20 19 18 17 17 19 23
37 28 25 24 21 20 20 20 22 22 20 19 18 16 13 13 16 22 28 33 36 41 46 52 59 64 68 72 73 74 76 76 76 77 77 76 75 75 75 75 75 74 73 72 71 70 68 67 67 65 63 61 61 60 59 58 58 58 58 57 55 54 53 52 52 50 47 48 46 37 33 33 27 24 24 22 22 23 23 23 22 21 20 19 19 19 20 21
33 25 24 22 20 20 19 19 21 21 19 17 17 16 12 10 11 13 21 28 29 32 38 42 47 53 59 65 70 72 73 75 76 78 78 78 78 78 78 78 77 76 75 74 73 72 71 70 69 67 66 64 63 62 61 61 60 60 59 58 56 55 55 54 53 51 49 50 45 37 37 38 31 27 25 24 24 24 24 24 23 23 23 22 21 22 21 20
32 25 23 21 20 20 20 20 21 20 19 17 16 15 13 10 8 8 14 27 31 30 33 36 39 43 47 52 61 68 71 72 74 78 80 80 80 80 80 80 80 79 77 77 76 74 73 72 71 69 68 66 65 64 63 63 62 61 60 58 57 56 56 55 54 52 51 51 46 41 42 41 34 29 27 26 27 26 25 25 25 26 26 25 24 23 22 22
32 26 24 22 20 20 20 20 20 19 18 16 15 14 14 12 8 7 9 22 31 29 30 34 37 40 43 43 48 57 66 70 72 76 79 81 82 82 82 81 81 81 80 79 78 77 75 74 72 71 70 69 67 66 65 65 64 63 61 59 58 57 56 56 55 53 52 51 47 43 46 44 36 30 29 28 28 28 28 28 28 29 29 29 27 26 25 25
33 26 24 23 20 20 20 20 19 18 17 14 13 12 12 11 9 8 7 14 25 27 27 30 33 37 42 43 44 48 55 63 69 74 78 81 83 83 83 83 83 82 82 81 80 79 77 76 75 74 72 71 69 68 67 67 66 65 62 60 59 58 57 56 55 54 53 52 49 48 49 44 35 31 32 32 31 30 30 31 31 32 32 32 30 28 28 27
Wind_Direction
290 289 287 287 287 288 290 292 293 295 296 298 299 301 302 303 304 304 302 301 302 306 310 308 299 286 267 257 258 258 258 255 248 237 230 226 226 230 217 198 200 203 207 212 210 208 208 210 212 212 214 216 214 205 193 200 201 180 175 184 193 191 168 158 164 173 180 184 185 182 170 154 145 151 173 183 182 172 154 145 146 143 150 162 165 173 171 158
287 286 285 284 283 284 285 286 287 288 289 290 290 292 294 297 299 300 299 296 294 295 300 305 302 297 286 262 250 252 256 255 252 247 237 226 223 225 221 210 201 199 202 205 207 207 206 209 211 210 211 214 213 205 199 204 206 193 190 196 198 197 182 174 182 185 186 191 189 181 171 160 146 139 156 179 174 162 149 143 145 149 156 168 176 181 184 178
287 285 284 283 282 282 281 282 283 283 283 283 283 284 286 289 291 293 292 291 289 287 289 295 297 297 297 283 254 248 250 252 253 252 244 230 223 224 227 220 208 205 202 201 204 204 206 208 209 207 207 210 209 203 199 202 207 201 199 203 200 197 189 190 195 192 192 197 197 189 174 160 147 138 139 161 157 147 144 141 139 146 156 165 189 200 198 196
288 286 284 283 282 281 280 280 280 280 280 279 279 280 280 282 283 285 285 284 284 283 281 284 288 290 294 293 273 251 245 248 251 254 251 237 225 223 225 220 213 214 211 210 211 211 214 215 212 208 207 208 203 199 199 200 204 202 206 208 200 196 191 193 197 197 200 202 203 197 177 159 153 149 142 145 145 136 133 132 132 136 146 159 201 225 216 209
288 287 285 283 281 280 279 279 278 278 277 277 277 278 278 277 276 276 276 278 279 280 279 277 278 281 286 288 286 266 247 247 249 251 252 243 231 223 222 220 217 219 219 220 222 222 225 227 223 216 211 210 200 194 199 201 199 201 209 210 203 198 189 191 196 198 202 204 204 195 178 166 159 156 149 144 142 136 130 127 127 131 136 154 221 248 238 229
288 287 286 284 282 280 279 278 277 277 276 275 274 275 275 272 269 267 268 272 275 277 277 276 273 273 278 281 282 274 260 257 249 247 251 252 243 231 225 224 223 224 225 226 228 229 230 232 233 222 213 210 199 196 204 203 197 201 210 212 212 201 187 189 193 195 200 200 201 195 182 172 157 150 150 146 141 137 129 123 124 133 137 152 256 266 256 250
289 287 286 285 283 281 279 278 276 276 275 274 273 272 269 266 263 262 264 266 271 274 273 273 272 269 271 274 276 271 268 270 253 248 253 256 250 238 230 227 227 227 226 226 230 233 232 228 226 218 210 206 199 201 209 206 200 204 211 216 216 203 191 192 193 198 202 197 200 199 187 179 160 139 138 141 138 133 123 113 110 121 137 168 228 240 235 238
289 288 287 285 284 282 280 279 277 275 274 274 273 270 266 261 260 260 262 263 265 268 269 269 268 267 267 268 271 267 266 278 261 253 254 253 250 243 234 228 225 226 225 221 222 225 224 218 215 211 206 204 200 204 212 208 204 207 212 217 217 208 200 195 196 206 204 197 202 202 193 192 175 147 134 135 141 137 127 114 101 96 100 154 220 218 209 210
289 288 287 286 285 283 282 280 278 276 274 273 272 270 265 260 259 259 260 261 260 261 264 265 264 264 264 264 265 262 263 274 263 255 250 248 249 248 242 233 223 222 223 221 218 216 214 210 208 207 204 202 201 206 212 208 206 210 213 216 216 214 209 199 198 205 202 197 201 200 197 200 189 162 147 147 151 144 131 117 101 89 80 70 253 231 213 214
288 287 286 286 285 284 283 280 279 277 275 274 272 269 266 262 260 259 259 258 256 256 258 260 260 260 260 261 260 258 264 268 260 252 244 245 248 248 247 241 228 221 220 221 218 212 211 207 205 207 205 203 202 207 212 206 206 213 215 215 215 219 216 205 199 199 201 198 196 196 197 200 193 169 158 160 155 146 134 119 105 90 75 64 10 261 237 231
286 286 285 285 285 284 283 282 280 278 276 275 272 269 266 263 261 260 260 258 255 253 253 255 256 256 256 256 254 255 261 260 259 255 244 243 248 249 249 245 234 224 218 218 215 209 209 208 209 212 210 207 206 210 213 206 206 213 215 214 215 222 217 206 202 196 194 193 190 199 200 192 185 172 164 165 152 140 132 120 113 98 79 64 49 286 252 241
286 285 285 284 284 284 283 283 282 280 278 277 274 269 266 264 262 261 260 259 256 251 250 251 252 253 253 253 251 253 254 250 256 258 248 241 245 250 250 248 240 230 221 216 214 211 210 210 214 218 216 213 211 213 215 209 209 214 216 213 214 221 213 206 206 195 192 192 185 202 201 184 174 170 167 168 151 136 125 114 121 109 92 73 58 355 260 237
286 285 284 283 283 283 283 283 282 281 280 279 276 272 268 265 263 262 260 259 257 253 249 248 249 249 251 252 248 248 249 245 249 253 250 244 242 249 251 249 244 236 226 219 216 215 213 212 214 216 218 217 215 217 219 215 214 218 220 214 215 216 206 207 209 201 204 206 192 192 193 182 172 169 170 171 152 138 122 114 129 117 98 82 67 43 257 229
284 283 283 282 281 281 281 281 281 281 280 280 278 274 270 267 264 262 260 259 258 255 251 248 248 247 249 252 247 241 244 243 244 247 252 252 243 245 248 246 243 238 232 226 222 221 220 217 215 216 219 219 219 222 222 220 219 223 224 217 216 214 206 212 215 211 218 215 197 181 182 177 170 166 167 168 154 145 128 115 124 113 98 85 74 68 102 229
281 281 280 280 279 278 278 278 278 278 278 278 277 276 273 269 266 262 260 258 257 256 254 251 248 246 248 251 247 239 238 241 244 245 251 253 244 240 242 245 246 243 238 234 230 227 224 222 220 222 222 220 222 225 224 224 224 227 228 221 217 214 210 217 221 222 228 219 194 178 181 178 174 167 162 161 152 146 135 120 118 106 98 90 79 72 85 192
279 279 279 278 277 276 275 274 274 274 274 274 274 274 273 271 268 264 261 258 256 256 254 252 250 247 246 250 249 242 235 239 244 245 247 248 244 243 243 245 248 246 241 236 234 233 231 228 225 225 225 223 226 228 227 228 228 231 234 226 218 213 213 220 224 226 231 220 190 181 188 183 180 174 166 161 153 146 139 131 125 108 101 92 80 66 57 79
278 277 277 277 276 275 274 273 272 272 272 271 270 270 270 270 269 266 263 259 257 255 253 252 251 249 246 248 250 248 240 237 243 246 244 244 244 246 245 244 244 244 241 236 234 235 236 235 230 227 227 228 230 230 230 232 232 237 241 232 220 213 214 220 223 226 232 223 193 184 197 191 185 179 169 165 158 152 146 140 140 120 104 91 79 65 51 65
277 276 276 275 275 274 273 272 272 271 271 270 269 268 267 267 267 266 264 261 258 256 253 251 250 249 248 247 249 250 246 240 241 244 243 243 243 244 245 245 244 244 243 242 240 238 238 239 235 230 228 229 232 232 236 242 239 241 244 236 225 216 215 219 223 226 232 227 202 187 203 200 188 180 170 167 161 155 151 144 141 127 109 95 84 72 54 59
276 275 274 274 273 273 272 271 271 271 271 271 269 268 266 265 264 263 263 262 259 257 254 252 251 250 249 248 248 248 249 245 241 243 245 245 245 243 242 244 246 244 244 246 246 243 239 235 234 235 236 238 239 237 240 244 239 239 242 235 228 220 215 217 224 228 230 230 213 192 199 198 188 182 173 168 166 162 155 146 137 128 119 110 100 89 72 66
277 276 274 273 272 271 270 270 269 269 269 270 270 268 266 264 263 262 261 260 260 258 256 254 250 250 250 249 248 248 247 247 243 242 244 245 245 242 237 238 242 243 245 246 245 241 237 237 239 238 239 241 239 237 238 238 234 234 236 233 229 222 212 213 224 230 233 233 221 200 196 194 189 184 179 175 173 167 157 149 142 136 134 136 126 113 102 87
278 277 276 275 273 272 270 269 268 267 267 267 268 268 267 265 263 262 260 259 259 257 256 256 251 250 253 250 248 247 246 244 244 242 242 243 244 241 238 237 239 241 243 241 239 236 234 231 223 214 215 222 225 227 229 231 231 232 232 230 228 222 209 209 220 229 237 237 225 209 198 194 192 188 185 182 174 165 160 156 152 150 152 157 150 134 123 114
278 277 276 275 275 273 271 269 267 265 264 264 264 265 265 265 264 262 260 259 259 256 254 256 253 250 251 251 249 247 246 245 244 243 243 244 244 244 240 237 236 236 237 237 237 237 229 206 203 209 209 213 216 218 220 222 224 226 229 227 223 217 207 208 215 221 233 237 227 217 204 195 196 193 188 182 171 168 167 166 167 165 164 162 156 149 138 135
278 277 275 274 274 274 272 270 268 265 263 262 262 262 262 263 263 262 260 257 257 257 254 252 253 251 249 251 251 247 246 245 243 240 241 242 243 244 241 237 234 233 234 236 239 238 224 210 218 220 216 215 216 218 218 217 216 216 221 222 217 213 208 208 214 219 229 236 227 219 210 199 199 198 189 179 175 175 174 175 178 176 173 167 160 158 149 147
280 278 276 274 274 273 272 271 269 266 264 263 261 260 260 260 260 260 260 257 255 256 256 251 249 250 249 249 249 248 247 244 243 241 240 240 242 243 241 238 235 231 232 235 236 234 223 216 220 223 223 221 219 220 220 219 216 212 214 214 210 212 211 208 214 220 228 237 230 221 216 204 201 200 189 184 184 181 182 184 183 182 183 175 161 154 150 150
282 280 278 275 274 273 272 271 269 267 265 264 261 260 259 258 258 258 258 257 253 253 255 254 249 246 246 247 249 251 250 245 245 245 240 238 240 241 241 239 235 231 231 234 235 232 225 222 220 222 224 225 226 226 224 223 219 214 211 209 208 211 212 209 213 218 226 236 234 226 223 210 202 201 193 192 192 187 188 186 181 186 188 179 163 152 149 151
285 282 280 277 275 274 272 271 270 268 266 264 262 260 259 258 257 256 256 256 253 250 251 253 252 247 244 245 247 251 251 247 245 244 240 236 236 238 238 238 236 231 229 233 234 229 226 226 223 223 224 225 230 231 231 230 226 220 211 207 210 211 210 211 212 217 225 232 232 230 230 216 203 203 199 199 198 193 191 182 178 188 185 177 170 157 152 151
287 284 282 279 276 274 272 271 270 269 267 265 262 261 260 258 257 256 255 255 253 251 249 248 251 250 246 244 244 247 250 248 245 243 242 240 238 237 238 237 236 233 230 233 233 227 227 231 228 227 228 228 231 233 235 236 234 227 213 210 214 212 210 211 213 218 225 230 230 231 235 227 210 205 205 204 203 199 191 179 179 185 179 174 171 161 158 154
285 284 282 280 278 275 273 271 269 268 267 266 263 261 260 259 257 255 255 254 252 252 251 247 246 249 248 245 244 245 247 247 245 244 244 244 240 239 239 239 237 234 233 235 232 222 225 229 225 225 225 224 224 226 228 230 230 224 213 212 216 214 212 212 215 219 224 230 232 231 237 238 219 206 209 208 206 203 191 182 183 181 176 173 169 165 165 161
283 281 280 279 278 276 273 271 268 267 266 265 264 262 260 259 257 256 254 253 252 251 252 249 246 246 247 245 243 243 245 245 244 243 244 244 242 241 241 240 237 232 231 234 228 217 219 222 219 221 221 217 215 216 219 222 222 215 211 212 215 215 214 215 218 220 225 232 237 232 234 242 226 202 210 213 209 205 192 186 185 179 177 176 172 171 171 168
284 281 278 276 275 274 273 271 268 266 264 264 263 262 261 259 258 257 254 252 252 251 251 251 247 245 245 245 243 242 243 244 244 243 243 243 243 241 240 238 235 232 231 233 228 218 218 222 223 223 221 219 217 217 219 221 220 213 208 211 215 216 216 217 219 221 228 238 241 231 231 243 234 200 208 216 208 200 193 190 187 180 179 178 175 177 176 173
286 283 280 276 274 272 270 270 268 266 264 262 261 261 260 259 257 256 254 251 252 251 249 250 248 245 244 245 244 242 241 241 243 243 242 242 242 240 238 236 235 233 231 232 230 223 220 224 228 227 223 223 223 222 223 226 225 218 211 212 216 218 218 219 220 222 232 244 245 233 229 241 239 197 202 214 205 196 195 192 187 182 181 181 181 182 178 175
287 284 282 279 276 272 269 267 266 265 263 261 260 259 258 257 256 255 253 252 252 249 247 248 248 247 244 244 244 243 241 239 240 241 241 240 241 241 240 239 240 239 237 238 238 233 228 228 230 229 226 226 226 223 224 229 229 226 220 219 222 222 222 223 224 229 241 252 252 238 230 239 243 193 196 207 202 197 196 192 188 184 184 185 186 185 181 178
288 285 283 280 278 275 272 269 265 263 262 260 258 257 256 255 255 255 253 252 250 248 247 247 247 247 245 243 243 243 242 240 238 238 239 238 238 238 238 237 237 239 239 239 240 238 235 233 231 229 227 228 228 225 227 233 234 232 229 230 233 233 233 235 236 241 250 257 260 247 235 241 248 199 189 198 201 197 194 193 191 189 188 187 185 187 187 187
290 286 284 282 279 277 274 271 268 264 261 259 257 255 254 254 254 254 252 250 249 248 247 247 246 246 245 243 241 241 241 240 237 236 237 238 237 236 234 233 233 234 234 232 233 233 232 231 230 231 232 233 233 230 230 234 234 230 229 232 237 239 244 249 250 251 256 260 264 256 241 241 239 197 182 188 198 197 194 195 195 193 191 187 188 192 196 197
291 288 285 282 280 277 275 272 270 267 263 259 256 254 252 252 251 250 249 249 248 247 246 246 245 245 244 243 241 239 238 239 237 235 235 236 237 236 233 232 232 232 232 230 230 229 229 229 226 225 225 226 228 226 226 231 231 228 224 226 231 235 242 248 248 249 254 257 260 258 243 238 245 223 191 186 193 196 197 197 198 198 194 193 196 199 202 202
292 289 286 283 281 278 275 272 270 267 264 260 257 254 252 249 248 247 247 247 246 246 245 244 244 243 243 241 240 237 236 236 236 234 232 232 235 234 231 229 229 231 232 232 230 229 229 228 224 221 219 218 220 218 218 225 230 230 227 227 230 231 235 241 243 244 247 251 255 251 232 230 239 225 201 192 188 193 198 197 199 200 198 201 204 204 206 205
293 290 287 285 281 278 275 273 270 267 264 260 256 253 251 248 246 244 244 244 244 244 243 241 241 241 240 240 238 236 234 234 234 233 231 230 231 232 232 229 228 230 231 231 230 228 229 226 222 223 220 216 218 218 217 219 222 224 224 224 226 226 227 233 237 238 240 246 250 246 229 229 225 199 188 189 184 187 195 197 200 202 202 207 209 210 210 207
298 295 291 288 284 279 276 273 270 267 264 260 256 252 249 247 245 243 241 241 241 241 241 240 239 238 238 238 237 235 233 231 231 231 231 229 229 230 231 230 228 228 229 230 230 228 228 225 222 221 218 214 217 219 219 220 220 220 218 216 221 223 223 228 234 235 238 245 251 252 241 224 193 172 178 187 182 184 191 195 200 204 208 213 214 214 213 209
303 300 297 294 291 285 279 274 271 267 264 260 256 251 248 245 243 242 240 238 238 238 238 238 237 236 236 236 236 234 232 229 229 229 230 230 229 229 230 230 229 229 228 228 228 228 226 225 223 220 216 215 217 221 222 222 221 220 218 218 221 222 222 226 232 234 237 244 248 246 234 198 170 167 176 186 188 190 194 198 203 204 208 213 215 213 212 210
307 304 301 298 296 293 287 280 275 271 266 261 256 251 247 243 241 239 238 237 235 235 236 236 235 235 234 234 234 233 231 228 227 227 228 229 229 228 228 229 229 230 228 226 226 227 225 223 222 219 216 218 221 223 224 224 223 222 221 224 226 227 227 228 231 231 232 236 239 238 227 179 182 178 173 181 190 196 198 200 203 204 205 208 211 211 210 211
310 307 303 300 299 297 294 289 283 277 271 265 259 252 247 242 239 236 235 234 233 233 233 233 233 233 232 232 232 231 230 227 225 225 226 228 229 228 227 227 228 229 229 226 223 224 225 224 222 220 218 221 224 224 223 223 224 223 222 224 227 231 233 233 234 234 235 239 240 243 228 160 164 164 166 180 187 193 199 199 200 204 205 205 207 208 208 209
314 309 305 303 301 300 299 295 290 284 278 270 263 255 248 243 239 235 232 232 231 230 230 231 231 231 230 230 229 229 228 226 224 223 224 226 227 227 227 226 226 227 228 227 224 223 225 225 223 221 221 223 225 224 222 222 223 222 222 221 222 226 229 231 233 234 239 241 241 244 223 174 166 174 178 188 191 193 199 200 202 205 206 205 205 206 207 207
318 312 309 307 305 304 302 298 295 292 287 281 271 260 251 244 239 235 231 230 229 228 228 228 229 229 228 228 228 227 226 225 224 222 223 224 225 226 226 225 225 226 226 227 225 223 224 225 224 222 223 224 225 225 224 224 223 224 224 222 222 225 225 227 228 228 232 233 233 235 217 187 191 208 192 194 202 199 200 202 205 208 208 208 205 205 207 208
323 316 312 311 309 307 305 300 297 296 296 294 285 271 257 246 240 235 229 227 227 227 226 226 226 227 226 226 226 225 224 223 222 222 221 222 223 225 226 225 225 225 225 226 226 225 224 225 224 222 221 223 224 224 224 224 225 226 226 224 226 227 227 227 227 225 228 228 226 229 217 194 192 202 198 201 207 205 204 204 206 209 211 212 210 208 207 208
327 319 314 313 312 310 308 305 302 302 303 302 294 282 267 251 240 233 228 224 224 225 225 225 225 225 224 224 224 223 222 220 220 221 220 220 221 223 225 225 224 224 225 225 226 226 225 224 225 223 221 222 225 225 225 225 227 228 227 226 228 229 228 229 229 230 231 230 229 231 226 208 197 203 208 209 210 211 211 209 209 211 213 214 215 214 212 210
330 322 316 315 314 313 311 309 310 310 312 310 302 292 277 257 241 232 228 225 222 222 224 224 224 224 223 223 222 221 220 218 218 219 219 218 219 221 223 224 224 224 225 225 225 225 226 225 225 224 223 223 226 228 229 229 230 232 232 230 231 231 231 231 233 234 234 233 233 234 233 225 212 208 211 212 213 216 216 215 215 216 217 217 217 220 220 217
333 326 321 318 317 319 318 317 318 319 320 321 318 310 292 269 247 232 227 225 222 221 222 223 224 224 223 222 221 220 219 217 216 217 217 217 217 219 221 223 224 224 225 225 225 225 225 226 226 226 224 224 225 228 229 229 231 233 234 234 234 234 234 234 237 238 237 237 237 235 235 233 223 213 211 210 212 217 219 219 218 219 222 220 217 219 221 220
338 333 329 324 322 324 325 324 323 323 323 325 329 328 314 289 263 237 224 220 219 218 221 223 224 225 225 223 221 220 218 217 215 215 216 216 216 217 219 221 222 224 224 225 225 225 225 225 227 227 226 225 225 226 228 228 230 232 233 234 235 235 236 236 239 241 241 241 241 237 236 236 227 216 211 207 209 215 219 220 219 222 224 222 217 217 217 218
343 340 337 331 327 328 329 329 327 325 323 324 329 333 328 308 286 248 218 208 206 210 217 221 223 225 227 226 223 221 218 216 215 214 214 215 214 215 216 219 221 222 223 224 225 225 225 225 226 227 227 226 226 226 227 228 229 230 232 233 234 235 237 238 240 241 242 244 244 240 239 237 229 219 213 207 208 212 217 222 223 223 225 222 220 219 218 219
347 344 343 337 332 333 334 333 332 328 325 323 326 331 330 320 304 273 222 203 200 205 211 214 218 220 224 228 227 224 220 216 214 214 213 213 213 214 215 217 219 221 222 223 224 225 226 226 226 227 227 227 227 226 227 227 228 230 231 233 233 235 237 239 240 241 243 245 245 243 243 242 235 227 219 213 212 213 218 224 225 225 227 225 223 223 223 224
351 346 347 344 338 337 338 336 335 333 330 327 326 325 328 328 317 300 249 211 207 214 213 209 212 216 218 222 226 226 224 219 215 214 213 213 212 213 214 215 217 219 221 222 224 224 225 226 227 227 227 227 227 227 227 228 229 229 230 232 233 235 237 239 240 241 243 245 245 243 245 244 239 235 231 224 218 216 218 223 226 229 231 231 228 226 225 227
355 348 347 348 344 341 341 339 338 340 338 332 328 322 322 327 324 314 287 226 217 225 225 215 213 215 217 219 222 225 226 223 217 214 213 213 213 213 213 214 216 218 220 222 223 224 225 226 227 227 227 227 227 228 228 228 229 230 229 230 232 234 236 238 240 241 242 244 244 243 243 243 240 238 237 232 225 220 220 223 226 228 231 234 234 231 228 228
Height
5883 5883 5882 5881 5881 5880 5880 5879 5879 5878 5878 5878 5877 5877 5877 5876 5876 5876 5875 5875 5875 5875 5874 5874 5874 5874 5874 5874 5874 5874 5873 5874 5874 5875 5876 5878 5879 5880 5880 5881 5882 5883 5883 5884 5885 5886 5887 5888 5888 5890 5891 5892 5893 5895 5896 5896 5897 5898 5899 5899 5900 5901 5902 5901 5901 5901 5901 5900 5900 5900 5900 5900 5901 5902 5903 5903 5904 5904 5904 5903 5904 5904 5904 5905 5905 5905 5905 5905
5882 5881 5881 5880 5880 5879 5879 5878 5878 5877 5877 5877 5876 5876 5876 5875 5875 5875 5874 5874 5874 5873 5873 5873 5873 5873 5873 5873 5873 5873 5873 5873 5873 5873 5875 5877 5877 5878 5879 5879 5880 5881 5882 5883 5884 5885 5885 5886 5887 5888 5889 5890 5891 5893 5895 5895 5896 5897 5898 5898 5899 5900 5901 5901 5900 5901 5901 5900 5899 5899 5899 5900 5900 5901 5902 5902 5903 5903 5903 5902 5903 5904 5904 5904 5904 5905 5905 5905
5881 5880 5879 5879 5879 5878 5878 5877 5877 5876 5876 5876 5875 5875 5875 5875 5874 5874 5873 5873 5872 5872 5872 5872 5872 5871 5872 5872 5872 5872 5872 5872 5872 5871 5873 5875 5876 5876 5877 5878 5879 5879 5880 5880 5881 5882 5882 5883 5883 5885 5886 5888 5890 5892 5893 5894 5895 5896 5897 5897 5898 5899 5900 5900 5900 5900 5900 5900 5899 5899 5899 5899 5899 5900 5900 5902 5902 5902 5901 5901 5902 5903 5904 5904 5904 5904 5904 5904
5879 5878 5878 5877 5877 5876 5876 5876 5875 5875 5874 5874 5874 5874 5874 5874 5873 5873 5872 5871 5871 5871 5871 5871 5870 5870 5870 5871 5871 5871 5871 5871 5871 5870 5871 5872 5874 5874 5875 5876 5877 5878 5878 5879 5879 5880 5880 5881 5882 5883 5885 5886 5888 5890 5892 5893 5894 5895 5895 5896 5897 5898 5899 5899 5899 5899 5900 5899 5899 5899 5899 5899 5898 5898 5898 5900 5901 5901 5900 5901 5901 5902 5903 5903 5903 5904 5904 5904
5877 5876 5876 5876 5875 5875 5874 5874 5874 5873 5873 5873 5873 5873 5873 5873 5872 5872 5871 5870 5870 5870 5870 5870 5869 5869 5869 5869 5870 5870 5870 5870 5870 5870 5869 5870 5871 5872 5873 5874 5875 5876 5877 5878 5878 5879 5880 5881 5882 5883 5885 5886 5888 5889 5891 5892 5893 5894 5894 5895 5896 5897 5898 5898 5898 5899 5899 5899 5899 5899 5899 5898 5898 5897 5897 5898 5900 5900 5900 5900 5901 5901 5902 5902 5903 5903 5904 5904
5875 5874 5874 5873 5873 5873 5872 5872 5872 5871 5871 5871 5871 5872 5872 5871 5871 5870 5869 5869 5868 5868 5868 5868 5868 5868 5868 5868 5868 5869 5869 5869 5869 5868 5868 5868 5869 5870 5871 5873 5874 5875 5876 5877 5878 5878 5879 5881 5882 5883 5885 5886 5887 5888 5888 5890 5892 5892 5893 5893 5894 5895 5897 5897 5898 5898 5899 5899 5899 5899 5898 5898 5898 5898 5897 5897 5898 5899 5899 5900 5900 5900 5901 5902 5902 5903 5903 5904
5872 5872 5871 5871 5870 5870 5870 5870 5869 5869 5869 5869 5869 5870 5870 5869 5869 5868 5868 5868 5867 5867 5867 5867 5867 5866 5866 5866 5867 5867 5868 5868 5868 5867 5867 5867 5868 5868 5869 5871 5872 5873 5874 5876 5877 5877 5878 5880 5881 5882 5883 5884 5886 5886 5887 5888 5890 5891 5892 5892 5893 5895 5896 5897 5898 5898 5898 5898 5898 5898 5898 5898 5898 5898 5898 5898 5898 5898 5898 5899 5899 5900 5900 5901 5901 5902 5903 5903
5870 5869 5869 5868 5868 5868 5867 5867 5867 5867 5866 5867 5867 5868 5868 5867 5866 5866 5866 5866 5866 5866 5865 5865 5865 5865 5865 5865 5865 5865 5867 5867 5867 5866 5866 5866 5866 5867 5867 5868 5870 5871 5873 5874 5875 5876 5877 5878 5879 5880 5881 5883 5884 5884 5885 5887 5889 5890 5891 5891 5892 5893 5895 5897 5898 5898 5898 5898 5898 5898 5898 5898 5898 5898 5899 5899 5898 5897 5897 5897 5898 5899 5899 5900 5901 5901 5902 5903
5868 5867 5866 5866 5865 5865 5865 5865 5864 5864 5864 5864 5865 5865 5865 5864 5864 5864 5864 5864 5865 5864 5864 5864 5864 5864 5863 5863 5863 5863 5865 5866 5865 5865 5865 5865 5865 5865 5866 5866 5868 5869 5870 5871 5873 5874 5875 5877 5877 5878 5880 5881 5881 5882 5883 5886 5888 5888 5889 5890 5891 5892 5894 5897 5898 5898 5898 5898 5897 5897 5898 5897 5898 5898 5898 5899 5899 5898 5897 5897 5897 5898 5899 5899 5900 5901 5901 5902
5865 5865 5864 5863 5863 5862 5862 5862 5862 5861 5861 5862 5863 5863 5862 5862 5861 5862 5862 5862 5863 5863 5862 5862 5862 5862 5862 5862 5861 5862 5863 5864 5863 5863 5864 5864 5864 5863 5864 5865 5865 5867 5868 5869 5871 5873 5874 5875 5875 5875 5876 5877 5878 5879 5881 5884 5886 5886 5887 5889 5890 5891 5893 5896 5897 5898 5898 5898 5897 5897 5897 5897 5897 5898 5898 5898 5898 5898 5897 5897 5897 5897 5898 5898 5899 5900 5901 5901
5863 5862 5861 5861 5860 5860 5860 5859 5859 5858 5858 5859 5860 5860 5859 5859 5859 5859 5859 5859 5860 5860 5860 5860 5860 5860 5860 5860 5860 5861 5862 5861 5861 5862 5862 5862 5862 5862 5862 5863 5863 5864 5866 5867 5869 5870 5871 5872 5872 5873 5874 5875 5877 5877 5879 5882 5883 5884 5885 5888 5889 5890 5892 5894 5896 5897 5898 5898 5898 5897 5897 5897 5898 5897 5898 5898 5898 5898 5898 5897 5896 5897 5898 5898 5898 5899 5900 5901
5860 5859 5859 5858 5858 5857 5857 5857 5856 5855 5855 5856 5857 5857 5856 5856 5856 5856 5856 5857 5857 5858 5858 5858 5858 5858 5858 5857 5858 5859 5860 5859 5859 5859 5860 5861 5861 5861 5861 5861 5862 5862 5863 5865 5866 5867 5868 5869 5870 5872 5873 5874 5875 5876 5877 5879 5880 5881 5883 5886 5888 5889 5892 5893 5894 5896 5896 5897 5898 5898 5897 5897 5897 5897 5898 5898 5898 5898 5898 5897 5897 5897 5897 5897 5898 5898 5899 5900
5856 5856 5855 5855 5854 5854 5854 5854 5853 5853 5852 5853 5853 5853 5853 5853 5853 5853 5853 5854 5854 5855 5855 5855 5856 5856 5855 5855 5856 5857 5857 5858 5857 5857 5858 5859 5860 5859 5859 5859 5860 5861 5861 5862 5864 5865 5866 5867 5868 5870 5871 5872 5873 5874 5876 5877 5878 5879 5881 5884 5886 5888 5891 5891 5892 5894 5895 5896 5897 5898 5897 5897 5897 5897 5897 5897 5897 5897 5897 5898 5897 5897 5897 5897 5897 5898 5898 5899
5853 5852 5852 5851 5851 5851 5851 5851 5850 5850 5849 5850 5850 5850 5850 5850 5850 5850 5850 5850 5851 5852 5852 5853 5853 5853 5853 5852 5853 5855 5855 5855 5855 5855 5856 5857 5858 5858 5857 5857 5858 5859 5860 5860 5861 5863 5864 5865 5866 5866 5867 5869 5871 5872 5874 5875 5877 5877 5879 5882 5884 5887 5889 5889 5890 5892 5893 5894 5895 5896 5896 5896 5896 5896 5896 5897 5896 5896 5897 5897 5897 5897 5896 5896 5897 5897 5898 5898
5849 5849 5848 5848 5847 5847 5848 5848 5847 5846 5846 5846 5846 5847 5846 5846 5847 5847 5847 5847 5848 5848 5849 5850 5850 5851 5851 5850 5850 5853 5853 5853 5853 5853 5854 5855 5856 5856 5855 5856 5856 5858 5858 5859 5860 5861 5862 5863 5864 5865 5866 5868 5869 5870 5872 5874 5875 5876 5877 5880 5883 5885 5887 5887 5889 5890 5891 5893 5894 5895 5895 5895 5895 5895 5895 5895 5896 5896 5896 5897 5897 5897 5896 5896 5896 5896 5897 5897
5845 5845 5844 5844 5843 5843 5844 5844 5844 5843 5842 5843 5843 5843 5843 5843 5843 5844 5844 5844 5845 5845 5846 5846 5847 5848 5849 5847 5847 5850 5851 5851 5851 5851 5852 5852 5853 5854 5854 5854 5855 5856 5857 5857 5858 5858 5859 5861 5862 5864 5865 5866 5867 5868 5870 5872 5873 5874 5875 5878 5881 5884 5885 5885 5887 5888 5889 5891 5892 5893 5894 5893 5893 5893 5893 5894 5894 5895 5895 5896 5896 5896 5896 5896 5896 5896 5896 5897
5841 5840 5840 5839 5839 5839 5839 5840 5840 5839 5838 5838 5839 5839 5839 5839 5840 5840 5841 5841 5841 5842 5842 5843 5844 5845 5846 5845 5844 5846 5848 5849 5849 5849 5850 5850 5850 5851 5852 5853 5853 5854 5854 5855 5856 5857 5857 5859 5861 5862 5863 5864 5865 5866 5868 5869 5871 5873 5874 5876 5879 5881 5883 5883 5885 5886 5886 5888 5890 5891 5892 5892 5892 5892 5892 5892 5893 5894 5894 5895 5895 5895 5895 5895 5895 5895 5895 5896
5836 5835 5835 5834 5834 5834 5834 5834 5835 5835 5834 5834 5834 5835 5835 5835 5835 5836 5837 5837 5838 5838 5838 5839 5840 5841 5842 5842 5842 5842 5844 5846 5846 5846 5847 5847 5848 5849 5849 5850 5851 5852 5853 5854 5854 5855 5856 5857 5858 5859 5860 5862 5863 5865 5866 5868 5871 5872 5874 5876 5877 5879 5881 5882 5884 5884 5883 5885 5887 5889 5891 5891 5891 5891 5891 5891 5892 5892 5893 5894 5894 5894 5895 5895 5895 5895 5895 5896
5831 5830 5830 5829 5829 5828 5829 5829 5830 5830 5829 5828 5829 5830 5830 5830 5831 5832 5833 5834 5834 5834 5835 5836 5837 5838 5838 5838 5838 5839 5840 5842 5843 5844 5844 5844 5845 5846 5847 5848 5849 5850 5851 5852 5852 5853 5854 5854 5855 5857 5858 5860 5862 5864 5865 5868 5870 5872 5873 5874 5875 5877 5879 5881 5881 5881 5881 5882 5885 5887 5888 5889 5889 5889 5889 5889 5889 5890 5891 5892 5893 5894 5894 5894 5894 5894 5895 5896
5825 5825 5824 5824 5823 5822 5823 5823 5824 5824 5824 5823 5823 5824 5825 5825 5826 5827 5828 5829 5830 5831 5831 5832 5833 5834 5834 5834 5834 5835 5836 5838 5840 5841 5841 5841 5842 5843 5844 5845 5846 5847 5849 5849 5850 5850 5851 5852 5854 5855 5857 5859 5860 5862 5863 5865 5868 5869 5870 5872 5873 5875 5877 5879 5879 5878 5879 5880 5883 5885 5886 5887 5887 5887 5887 5887 5887 5889 5890 5890 5891 5892 5893 5893 5893 5894 5894 5895
5819 5819 5818 5818 5817 5816 5816 5817 5817 5818 5819 5818 5818 5818 5819 5820 5820 5821 5823 5824 5825 5826 5827 5828 5829 5831 5831 5830 5830 5830 5832 5834 5836 5837 5837 5838 5838 5839 5841 5843 5844 5845 5846 5846 5846 5847 5849 5851 5853 5853 5854 5855 5857 5858 5859 5862 5864 5866 5868 5869 5871 5873 5876 5877 5877 5877 5877 5878 5880 5882 5883 5885 5885 5885 5885 5885 5887 5888 5889 5889 5889 5889 5890 5892 5892 5893 5894 5895
5812 5812 5812 5812 5811 5809 5809 5810 5810 5811 5812 5812 5812 5812 5813 5814 5814 5815 5817 5819 5819 5820 5823 5824 5825 5828 5827 5824 5825 5826 5828 5831 5833 5833 5834 5834 5835 5836 5838 5839 5841 5842 5842 5842 5843 5845 5848 5851 5851 5850 5851 5851 5852 5854 5855 5858 5860 5862 5864 5866 5869 5872 5874 5875 5875 5875 5874 5874 5878 5879 5879 5881 5882 5882 5884 5885 5886 5886 5887 5888 5888 5888 5887 5889 5891 5892 5892 5894
5805 5805 5805 5805 5804 5803 5802 5802 5802 5804 5805 5805 5805 5806 5807 5808 5808 5809 5810 5814 5815 5815 5818 5820 5820 5823 5824 5820 5819 5821 5824 5828 5828 5829 5830 5831 5832 5833 5834 5836 5838 5838 5838 5840 5842 5844 5846 5848 5847 5847 5848 5848 5850 5851 5852 5854 5856 5858 5861 5863 5868 5871 5871 5872 5872 5872 5871 5871 5874 5875 5875 5878 5880 5881 5883 5884 5883 5884 5885 5886 5887 5887 5887 5886 5887 5889 5891 5892
5799 5798 5798 5798 5798 5796 5795 5795 5794 5796 5797 5797 5798 5799 5800 5801 5802 5803 5803 5806 5811 5811 5810 5814 5816 5818 5819 5816 5814 5815 5821 5823 5823 5825 5827 5827 5828 5829 5830 5833 5833 5834 5836 5838 5839 5840 5843 5844 5844 5845 5846 5846 5847 5848 5849 5851 5853 5856 5858 5861 5865 5868 5869 5870 5869 5869 5869 5869 5871 5873 5873 5875 5878 5880 5882 5881 5880 5882 5883 5885 5886 5887 5887 5886 5886 5887 5889 5890
5791 5791 5791 5791 5791 5790 5789 5788 5786 5787 5789 5789 5791 5792 5793 5794 5794 5796 5797 5798 5804 5807 5805 5806 5810 5812 5813 5812 5810 5811 5815 5818 5820 5821 5821 5824 5825 5825 5826 5827 5828 5831 5834 5835 5835 5837 5840 5841 5842 5843 5843 5844 5845 5846 5848 5849 5851 5853 5855 5859 5862 5863 5865 5866 5866 5867 5867 5866 5869 5870 5869 5872 5875 5877 5878 5877 5878 5880 5881 5883 5885 5886 5887 5887 5886 5886 5887 5889
5783 5783 5783 5783 5783 5783 5782 5781 5779 5779 5780 5780 5783 5784 5785 5787 5787 5789 5790 5791 5795 5800 5801 5801 5802 5805 5808 5808 5808 5807 5808 5813 5817 5815 5815 5819 5821 5821 5822 5822 5825 5829 5831 5831 5831 5833 5836 5838 5839 5840 5841 5842 5843 5845 5846 5847 5848 5850 5854 5856 5857 5858 5862 5863 5864 5864 5863 5864 5867 5867 5865 5868 5871 5873 5874 5875 5876 5877 5879 5881 5883 5884 5885 5886 5886 5886 5886 5887
5776 5775 5776 5775 5775 5776 5775 5774 5773 5771 5771 5771 5773 5776 5777 5779 5780 5782 5783 5784 5787 5791 5795 5796 5795 5797 5801 5803 5804 5803 5802 5808 5811 5809 5810 5815 5817 5817 5817 5819 5822 5826 5827 5826 5827 5832 5835 5835 5836 5838 5838 5839 5841 5844 5845 5845 5846 5849 5852 5853 5853 5856 5859 5860 5861 5860 5860 5862 5863 5863 5863 5864 5867 5870 5872 5873 5874 5875 5877 5879 5881 5883 5884 5885 5885 5885 5885 5886
5768 5767 5768 5767 5766 5767 5767 5766 5766 5764 5763 5763 5765 5766 5768 5770 5772 5774 5775 5776 5779 5782 5786 5790 5790 5790 5793 5796 5798 5798 5798 5802 5805 5805 5806 5809 5811 5812 5813 5816 5820 5822 5823 5822 5825 5830 5831 5831 5833 5833 5834 5836 5839 5841 5841 5842 5844 5846 5848 5849 5850 5853 5854 5855 5855 5856 5857 5857 5857 5860 5860 5860 5863 5868 5870 5870 5871 5873 5876 5878 5880 5882 5883 5883 5884 5884 5884 5884
5760 5759 5760 5759 5758 5758 5757 5757 5758 5757 5756 5756 5756 5758 5759 5761 5763 5765 5766 5768 5772 5775 5777 5781 5784 5785 5785 5788 5791 5792 5793 5795 5798 5800 5801 5803 5807 5808 5810 5813 5815 5817 5817 5817 5821 5825 5825 5826 5827 5827 5828 5832 5835 5836 5837 5839 5840 5842 5844 5845 5846 5847 5849 5850 5850 5852 5853 5850 5852 5857 5858 5856 5859 5864 5866 5866 5869 5873 5876 5877 5879 5880 5881 5881 5882 5882 5882 5883
5751 5750 5751 5751 5750 5749 5748 5747 5748 5749 5749 5749 5748 5750 5751 5752 5754 5755 5757 5762 5766 5768 5769 5771 5775 5778 5778 5780 5783 5785 5787 5789 5791 5795 5796 5798 5802 5804 5806 5808 5809 5810 5812 5813 5816 5820 5821 5822 5822 5823 5827 5830 5831 5832 5834 5835 5836 5838 5840 5840 5841 5842 5844 5845 5846 5849 5848 5844 5848 5855 5856 5854 5855 5859 5862 5863 5869 5873 5875 5875 5877 5878 5879 5880 5881 5881 5882 5882
5740 5739 5740 5742 5741 5740 5739 5737 5738 5739 5740 5741 5741 5742 5742 5743 5744 5745 5749 5757 5760 5759 5760 5761 5765 5769 5771 5772 5775 5778 5781 5783 5785 5788 5790 5793 5795 5797 5800 5802 5803 5805 5806 5807 5811 5815 5817 5817 5818 5822 5826 5827 5827 5829 5831 5832 5832 5835 5836 5836 5837 5839 5840 5841 5842 5845 5843 5840 5844 5852 5854 5853 5852 5856 5860 5863 5868 5871 5872 5873 5875 5876 5878 5879 5880 5880 5881 5882
5728 5727 5728 5729 5729 5730 5729 5729 5729 5729 5729 5731 5732 5733 5734 5733 5734 5737 5744 5750 5749 5748 5751 5753 5756 5760 5763 5766 5767 5770 5773 5776 5779 5781 5783 5786 5788 5792 5796 5798 5799 5801 5802 5805 5809 5812 5814 5814 5816 5820 5822 5823 5824 5827 5828 5828 5829 5832 5833 5833 5833 5835 5836 5837 5838 5840 5839 5839 5842 5848 5852 5850 5850 5856 5859 5862 5866 5868 5869 5871 5873 5874 5876 5877 5878 5879 5880 5880
5713 5714 5715 5715 5716 5717 5717 5718 5719 5719 5720 5721 5721 5723 5724 5723 5726 5731 5736 5737 5736 5738 5742 5745 5748 5751 5754 5758 5760 5762 5765 5769 5772 5774 5776 5779 5781 5785 5789 5792 5795 5796 5798 5803 5806 5807 5809 5810 5812 5815 5817 5819 5822 5824 5825 5826 5828 5829 5831 5831 5831 5832 5833 5835 5837 5838 5838 5839 5841 5846 5850 5848 5849 5855 5858 5860 5863 5865 5867 5869 5870 5872 5874 5876 5877 5877 5878 5879
5696 5698 5700 5700 5700 5702 5704 5705 5706 5707 5709 5709 5711 5711 5712 5715 5719 5723 5724 5724 5727 5730 5733 5736 5740 5742 5745 5749 5752 5755 5757 5760 5764 5767 5769 5771 5774 5778 5782 5785 5788 5789 5792 5797 5798 5801 5803 5805 5808 5812 5816 5818 5819 5822 5824 5824 5824 5825 5828 5829 5828 5830 5832 5834 5837 5837 5837 5838 5839 5844 5848 5846 5848 5853 5856 5859 5861 5863 5866 5867 5869 5870 5872 5874 5875 5875 5876 5877
5680 5680 5683 5684 5684 5685 5688 5690 5691 5694 5696 5697 5699 5699 5701 5706 5709 5710 5711 5714 5717 5721 5724 5727 5730 5732 5736 5740 5744 5747 5750 5752 5756 5760 5762 5764 5767 5771 5775 5778 5781 5783 5787 5790 5792 5795 5797 5800 5805 5809 5812 5813 5814 5818 5819 5818 5819 5821 5822 5823 5824 5828 5831 5832 5834 5835 5835 5835 5837 5841 5844 5845 5847 5851 5854 5857 5860 5862 5864 5865 5866 5868 5870 5872 5872 5874 5875 5876
5665 5664 5665 5666 5667 5667 5670 5672 5675 5678 5681 5683 5685 5687 5691 5695 5696 5697 5701 5704 5707 5711 5715 5718 5720 5723 5726 5730 5734 5738 5742 5745 5748 5751 5754 5757 5760 5763 5767 5771 5774 5777 5780 5783 5787 5791 5793 5797 5802 5803 5804 5807 5809 5812 5813 5813 5815 5816 5818 5820 5824 5828 5828 5828 5829 5832 5832 5832 5833 5837 5841 5843 5845 5848 5851 5855 5858 5860 5862 5863 5864 5867 5869 5870 5871 5873 5874 5875
5652 5650 5649 5649 5649 5650 5652 5654 5657 5660 5664 5667 5670 5674 5678 5680 5681 5685 5689 5693 5696 5700 5704 5708 5710 5713 5716 5720 5725 5729 5734 5738 5740 5742 5745 5749 5752 5754 5759 5764 5767 5770 5774 5777 5781 5785 5788 5792 5796 5797 5800 5803 5805 5806 5807 5807 5808 5810 5814 5820 5822 5822 5822 5823 5825 5827 5829 5829 5831 5835 5838 5840 5843 5846 5849 5852 5855 5858 5860 5862 5864 5866 5867 5868 5870 5872 5873 5874
5639 5637 5635 5633 5633 5635 5636 5637 5639 5642 5646 5649 5654 5657 5661 5665 5668 5673 5677 5681 5685 5687 5691 5696 5699 5703 5707 5711 5715 5720 5725 5729 5731 5734 5737 5741 5744 5748 5752 5756 5759 5763 5768 5771 5775 5779 5783 5787 5791 5792 5795 5798 5799 5799 5800 5800 5802 5805 5812 5815 5813 5814 5818 5819 5820 5823 5826 5827 5830 5833 5836 5837 5841 5844 5847 5849 5852 5855 5857 5860 5862 5864 5865 5867 5868 5870 5872 5873
5629 5626 5624 5621 5619 5620 5622 5622 5623 5625 5627 5632 5636 5640 5645 5651 5655 5659 5663 5668 5672 5675 5679 5683 5688 5693 5697 5701 5706 5710 5715 5719 5722 5725 5729 5732 5737 5741 5745 5748 5752 5756 5761 5766 5769 5773 5778 5782 5785 5788 5791 5793 5792 5792 5793 5795 5799 5803 5807 5807 5807 5810 5815 5816 5817 5822 5825 5826 5829 5831 5834 5836 5838 5841 5844 5846 5848 5851 5854 5856 5859 5861 5863 5865 5867 5868 5870 5872
5620 5619 5616 5612 5610 5610 5610 5610 5610 5611 5612 5615 5619 5623 5628 5635 5640 5644 5648 5653 5658 5662 5666 5670 5676 5682 5687 5691 5696 5700 5705 5709 5713 5717 5720 5724 5729 5733 5737 5741 5745 5749 5754 5759 5763 5767 5772 5776 5779 5783 5786 5786 5786 5787 5790 5793 5797 5801 5803 5804 5805 5809 5812 5813 5814 5818 5821 5824 5827 5829 5832 5834 5835 5837 5840 5842 5844 5847 5849 5852 5854 5857 5859 5862 5864 5865 5867 5869
5613 5611 5609 5605 5604 5602 5601 5601 5600 5600 5600 5601 5603 5608 5613 5618 5623 5629 5633 5638 5645 5649 5652 5658 5664 5669 5675 5681 5686 5690 5695 5699 5703 5708 5712 5716 5720 5724 5729 5733 5738 5742 5747 5752 5756 5760 5764 5769 5773 5778 5780 5780 5782 5785 5789 5791 5794 5798 5800 5802 5805 5807 5809 5809 5810 5815 5819 5822 5825 5828 5831 5833 5833 5836 5838 5840 5841 5843 5845 5847 5850 5852 5855 5857 5860 5862 5864 5866
5606 5604 5602 5600 5598 5596 5595 5594 5592 5592 5591 5590 5591 5594 5598 5603 5608 5615 5619 5623 5629 5634 5639 5645 5651 5657 5664 5670 5675 5680 5684 5688 5694 5699 5703 5708 5712 5716 5720 5726 5730 5735 5739 5743 5748 5753 5757 5762 5767 5771 5774 5776 5778 5781 5784 5786 5789 5792 5794 5797 5799 5800 5801 5803 5808 5815 5818 5819 5822 5826 5829 5831 5833 5835 5837 5838 5840 5841 5843 5845 5847 5849 5851 5854 5856 5859 5861 5863
5601 5597 5595 5594 5592 5590 5590 5588 5586 5585 5584 5582 5582 5583 5586 5590 5595 5601 5607 5611 5615 5621 5626 5631 5637 5645 5652 5658 5664 5670 5674 5678 5684 5690 5695 5700 5704 5707 5712 5717 5722 5727 5731 5735 5740 5746 5751 5754 5759 5765 5769 5771 5773 5776 5778 5781 5785 5786 5788 5792 5792 5791 5794 5800 5806 5811 5811 5812 5817 5822 5826 5829 5831 5834 5835 5836 5838 5839 5841 5843 5844 5846 5848 5850 5852 5855 5857 5859
5599 5593 5589 5587 5586 5585 5584 5583 5582 5581 5579 5577 5576 5575 5577 5580 5584 5590 5595 5599 5603 5608 5613 5618 5625 5632 5639 5645 5652 5658 5663 5668 5673 5679 5685 5690 5695 5699 5704 5709 5714 5718 5722 5727 5732 5738 5743 5746 5751 5757 5762 5763 5765 5768 5770 5774 5777 5778 5782 5786 5786 5787 5792 5797 5801 5803 5802 5806 5813 5816 5821 5827 5829 5831 5833 5834 5836 5838 5839 5840 5842 5843 5845 5846 5848 5850 5852 5854
5595 5590 5585 5582 5581 5581 5580 5578 5577 5577 5576 5574 5571 5569 5570 5572 5576 5580 5583 5587 5591 5596 5601 5607 5613 5619 5625 5632 5639 5646 5652 5658 5663 5669 5675 5681 5687 5692 5696 5700 5705 5709 5714 5719 5724 5730 5735 5739 5743 5748 5753 5755 5756 5759 5763 5767 5770 5772 5776 5780 5781 5784 5788 5792 5795 5795 5796 5804 5809 5811 5817 5824 5827 5829 5831 5832 5834 5835 5837 5838 5840 5841 5842 5844 5845 5847 5849 5851
5590 5587 5583 5579 5577 5576 5576 5574 5573 5573 5572 5571 5568 5565 5565 5566 5568 5571 5574 5578 5582 5586 5591 5596 5601 5606 5612 5619 5626 5633 5640 5646 5652 5658 5665 5672 5678 5683 5688 5692 5696 5701 5705 5711 5717 5722 5726 5731 5735 5741 5747 5750 5752 5756 5760 5764 5766 5768 5771 5775 5778 5781 5785 5788 5790 5789 5793 5801 5803 5806 5815 5821 5825 5827 5828 5829 5831 5832 5834 5836 5837 5839 5840 5842 5843 5845 5846 5848
5585 5582 5580 5577 5575 5574 5573 5571 5570 5569 5569 5567 5565 5563 5561 5561 5562 5564 5567 5571 5575 5579 5583 5587 5590 5595 5601 5607 5614 5621 5628 5636 5643 5648 5655 5662 5669 5674 5679 5683 5687 5692 5697 5703 5708 5714 5718 5723 5728 5733 5739 5744 5747 5751 5755 5759 5761 5763 5767 5771 5774 5777 5780 5783 5783 5784 5792 5796 5797 5804 5813 5816 5821 5825 5825 5827 5829 5829 5831 5832 5834 5836 5838 5840 5841 5842 5843 5845
5582 5579 5577 5574 5573 5572 5571 5569 5568 5567 5566 5565 5563 5561 5560 5558 5558 5560 5562 5565 5569 5572 5575 5579 5582 5586 5591 5596 5602 5609 5616 5625 5633 5639 5645 5652 5659 5665 5670 5674 5678 5683 5689 5694 5699 5705 5710 5715 5719 5725 5731 5737 5741 5744 5748 5752 5755 5757 5761 5765 5769 5772 5775 5777 5778 5783 5789 5789 5793 5805 5810 5811 5817 5822 5823 5825 5826 5826 5828 5829 5831 5833 5835 5837 5838 5839 5840 5841
5581 5579 5576 5573 5572 5571 5570 5569 5567 5565 5564 5563 5562 5560 5559 5557 5557 5557 5559 5562 5566 5568 5570 5572 5576 5579 5583 5587 5592 5598 5606 5615 5623 5629 5636 5642 5648 5654 5660 5664 5669 5675 5680 5686 5691 5696 5701 5707 5712 5717 5723 5729 5734 5737 5741 5745 5748 5751 5755 5759 5764 5767 5769 5772 5775 5780 5782 5783 5791 5801 5803 5804 5812 5817 5819 5822 5823 5823 5825 5826 5828 5830 5831 5833 5835 5836 5838 5838
5580 5578 5576 5573 5571 5570 5569 5567 5566 5564 5563 5562 5561 5559 5558 5557 5556 5556 5556 5559 5562 5564 5565 5568 5570 5573 5576 5579 5583 5589 5596 5605 5612 5619 5626 5632 5638 5644 5650 5655 5660 5666 5671 5676 5682 5687 5693 5698 5704 5710 5716 5721 5726 5730 5734 5738 5741 5745 5749 5754 5759 5762 5764 5768 5771 5775 5777 5779 5787 5795 5795 5799 5807 5813 5816 5818 5819 5821 5822 5823 5825 5827 5827 5830 5832 5833 5835 5836
5580 5578 5576 5573 5571 5569 5568 5566 5564 5563 5561 5560 5559 5558 5557 5556 5556 5555 5555 5557 5559 5560 5561 5564 5566 5568 5571 5574 5577 5581 5587 5594 5602 5609 5615 5622 5629 5635 5641 5647 5652 5657 5662 5668 5673 5679 5684 5690 5697 5702 5707 5713 5718 5723 5727 5731 5734 5738 5743 5748 5753 5757 5760 5763 5766 5770 5773 5775 5783 5789 5788 5792 5803 5810 5813 5815 5816 5817 5819 5821 5822 5823 5824 5826 5828 5831 5833 5834
5581 5578 5576 5573 5571 5569 5567 5565 5564 5562 5561 5559 5558 5557 5556 5556 5555 5555 5554 5556 5557 5557 5557 5560 5562 5564 5567 5570 5573 5576 5579 5584 5592 5599 5605 5613 5619 5625 5632 5638 5643 5648 5654 5659 5664 5670 5676 5682 5688 5693 5698 5705 5710 5715 5720 5724 5727 5731 5738 5744 5748 5751 5755 5758 5761 5765 5768 5771 5777 5780 5781 5788 5801 5807 5807 5809 5812 5814 5816 5817 5819 5820 5821 5822 5825 5828 5829 5831